Regional Weather Roundup
Issued by NWS Goodland, KS

Home | Current Version | Previous Version | Text Only | Print | Product List | Glossary Off
Versions: 1 2 3 4 5 6 7 8 9 10 11 12 13 14 15 16 17 18 19 20 21 22 23 24 25 26 27 28 29 30 31 32 33 34 35 36 37 38 39 40 41 42 43 44 45 46 47 48 49 50

000
ASUS43 KGLD 240808
RWRGLD

GOODLAND FORECAST AREA HOURLY WEATHER ROUNDUP
NATIONAL WEATHER SERVICE GOODLAND KS
200 AM MDT SUN SEP 24 2017

...OFFICIAL OBSERVATIONS...

CITY           SKY/WX    TMP DP  RH WIND       PRES   REMARKS
GOODLAND KS    HVY RAIN  50  50 100 NW18G25   29.87S FOG
HILL CITY KS   CLOUDY    66  64  93 E3        29.87S
IMPERIAL NEB   LGT RAIN  49  47  93 N14       29.91S
MCCOOK NEB     FOG       59  59 100 E8        29.84S VSB 1
AKRON CO       CLOUDY    45  43  93 N10       29.91F
BURLINGTON CO  LGT RAIN  49  48  97 N10       29.89F
LIMON CO         N/A    N/A N/A N/A MISG      29.93R
$$

...UNOFFICIAL OBSERVATIONS...

CITY           SKY/WX    TMP DP  RH WIND       PRES   REMARKS
LENORA KS        N/A     62  32  32 MISG        N/A
NORTON KS      LGT RAIN  59  55  88 E7        29.83F
SHARON SPRINGS   N/A     53  51  94 NW14        N/A
KIT CARSON CO    N/A     50  47  88 MISG        N/A
YUMA CO        CLOUDY    46  45  93 N10       29.89F
$$



USA.gov is the U.S. government's official web portal to all federal, state and local government web resources and services.